This is the latest recevied weather packets stored in our database for station/object KC8JWT. If no packets are shown the sender has not sent any weather packets the latest 10 day(s).
| Time | Temp. | Humidity | Pressure | Rain* | Wind** | Luminosity | Snow |
|---|---|---|---|---|---|---|---|
| 1777710646 | 2.22° C | 99% | 1016.8 hPa | 0 mm | - | 0 W/m² | - |
| 1777710343 | 2.78° C | 99% | 1016.8 hPa | 0 mm | - | 0 W/m² | - |
| 1777710040 | 2.22° C | 99% | 1016.7 hPa | 0 mm | - | 0 W/m² | - |
| 1777709738 | 2.22° C | 99% | 1016.9 hPa | 0 mm | - | 0 W/m² | - |
| 1777709434 | 2.22° C | 99% | 1016.8 hPa | 0 mm | - | 0 W/m² | - |
| 1777709132 | 2.22° C | 99% | 1016.9 hPa | 0 mm | - | 0 W/m² | - |
| 1777708830 | 2.22° C | 99% | 1017 hPa | 0 mm | - | 0 W/m² | - |
| 1777708526 | 2.22° C | 99% | 1016.9 hPa | 0 mm | - | 0 W/m² | - |
| 1777708225 | 2.22° C | 99% | 1016.9 hPa | 0 mm | - | 0 W/m² | - |
| 1777707922 | 2.78° C | 99% | 1016.7 hPa | 0 mm | - | 0 W/m² | - |
| 1777707618 | 2.78° C | 99% | 1016.7 hPa | 0 mm | - | 0 W/m² | - |
| 1777707314 | 2.22° C | 99% | 1016.6 hPa | 0 mm | - | 0 W/m² | - |
| 1777707012 | 2.22° C | 99% | 1016.6 hPa | 0 mm | - | 0 W/m² | - |
| 1777706709 | 2.22° C | 99% | 1016.5 hPa | 0 mm | - | 0 W/m² | - |
| 1777706407 | 2.22° C | 99% | 1016.5 hPa | 0 mm | - | 0 W/m² | - |
| 1777706104 | 2.78° C | 99% | 1016.5 hPa | 0 mm | - | 0 W/m² | - |
| 1777705803 | 2.78° C | 99% | 1016.4 hPa | 0 mm | - | 0 W/m² | - |
| 1777705500 | 3.33° C | 99% | 1016.6 hPa | 0 mm | - | 0 W/m² | - |
| 1777705198 | 2.78° C | 99% | 1016.6 hPa | 0 mm | - | 0 W/m² | - |
| 1777704897 | 3.33° C | 99% | 1016.8 hPa | 0 mm | - | 0 W/m² | - |
| 1777704594 | 3.89° C | 99% | 1016.7 hPa | 0 mm | - | 0 W/m² | - |
| 1777704292 | 3.89° C | 99% | 1017 hPa | 0 mm | - | 0 W/m² | - |
| 1777703989 | 3.89° C | 99% | 1016.8 hPa | 0 mm | - | 0 W/m² | - |
| 1777703687 | 4.44° C | 99% | 1017.3 hPa | 0 mm | - | 0 W/m² | - |
| 1777703384 | 4.44° C | 99% | 1017 hPa | 0 mm | - | 0 W/m² | - |
* Rain latest hour (hover to see other rain measurements)
** Current wind speed in m/s (hover to see current wind gust speed)